Weather History for Garden City, KS

Change the Weather History Date:

Thursday, January 23, 2014

  Actual Average Record
Temperature  
Mean Temperature 11 °F 31 °F  
Max Temperature 18 °F 44 °F 71 °F (1976)
Min Temperature 4 °F 18 °F -9 °F (1963)
Degree Days  
Heating Degree Days 54 34  
Month to date heating degree days 767 782  
Since 1 July heating degree days 2888 2905  
Cooling Degree Days 0 0  
Month to date cooling degree days 0 0  
Year to date cooling degree days 0 0  
Moisture  
Dew Point -5 °F    
Average Humidity 56    
Maximum Humidity 83    
Minimum Humidity 28    
Precipitation  
Precipitation T in 0.01 in 0.18 in (1965)
Month to date precipitation 0.01 0.24  
Year to date precipitation 0.01 0.24  
Sea Level Pressure  
Sea Level Pressure 30.74 in    
Wind  
Wind Speed 12 mph (North)    
Max Wind Speed 28 mph    
Max Gust Speed 35 mph    
Visibility 9 miles    
Events Snow    
T = Trace of Precipitation, MM = Missing Value Source: NWS Daily Summary

Daily Weather History Graph

Daily Weather History Graph

Search for Another Location

Airport:

Trip Planner

Search our weather history database for the weather conditions in past years. The results will help you decide how hot, cold, wet, or windy it might be!

Date:

Astronomy

Jan. 23, 2014 Rise Set
Actual Time 7:53 AM CST 5:56 PM CST
Civil Twilight 7:25 AM CST 6:24 PM CST
Nautical Twilight 6:53 AM CST 6:56 PM CST
Astronomical Twilight 6:22 AM CST 7:27 PM CST
Moon 12:22 AM CST (1/23) 11:37 AM CST (1/23)
Length of Visible Light 10h 59m
Length of Day
10h 02m
Waning Gibbous, 55% of the Moon is Illuminated
Jan 23
Waning Gibbous
Jan 23
Last Quarter
Jan 30
New
Feb 6
First Quarter
Feb 14
Full

Hourly Weather History & Observations

Time (CST) Temp. Windchill Dew Point Humidity Pressure Visibility Wind Dir Wind Speed Gust Speed Precip Events Conditions
12:54 AM 16.0 °F -2.1 °F 3.0 °F 57% 30.47 in 10.0 mi NE 23.0 mph 29.9 mph N/A   Overcast
1:54 AM 12.9 °F -4.4 °F -0.9 °F 54% 30.52 in 10.0 mi ENE 18.4 mph - N/A   Overcast
2:54 AM 10.9 °F -8.3 °F -9.9 °F 39% 30.56 in 10.0 mi NE 21.9 mph - N/A   Overcast
3:54 AM 10.0 °F -9.1 °F -11.0 °F 38% 30.59 in 10.0 mi NNE 20.7 mph 25.3 mph N/A   Overcast
4:54 AM 9.0 °F -11.0 °F -9.9 °F 42% 30.63 in 10.0 mi NNE 21.9 mph - N/A   Overcast
5:54 AM 6.1 °F -13.3 °F -4.0 °F 63% 30.68 in 3.0 mi NNE 18.4 mph - 0.00 in Snow Light Snow
6:44 AM 6.1 °F -10.9 °F -2.9 °F 67% 30.59 in 2.0 mi NNE 13.8 mph - 0.00 in Snow Light Snow
6:54 AM 6.1 °F -9.5 °F -4.0 °F 63% 30.72 in 5.0 mi NE 11.5 mph - 0.00 in   Haze
7:54 AM 6.1 °F -10.2 °F -5.1 °F 60% 30.77 in 9.0 mi NE 12.7 mph - N/A   Overcast
8:54 AM 6.1 °F -9.5 °F -4.0 °F 63% 30.80 in 10.0 mi North 11.5 mph - N/A   Overcast
9:54 AM 8.1 °F -7.0 °F -9.0 °F 46% 30.85 in 10.0 mi North 11.5 mph - N/A   Overcast
10:54 AM 10.9 °F -4.1 °F -8.0 °F 42% 30.87 in 10.0 mi NNE 12.7 mph 18.4 mph N/A   Partly Cloudy
11:54 AM 12.9 °F -0.9 °F -9.9 °F 35% 30.87 in 10.0 mi NNE 11.5 mph - N/A   Mostly Cloudy
12:54 PM 14.0 °F 3.9 °F -11.0 °F 32% 30.86 in 10.0 mi Variable 6.9 mph - N/A   Partly Cloudy
1:54 PM 17.1 °F 6.6 °F -11.0 °F 28% 30.84 in 10.0 mi North 8.1 mph - N/A   Clear
2:54 PM 17.1 °F 6.6 °F -7.1 °F 34% 30.81 in 10.0 mi NNW 8.1 mph - N/A   Clear
3:54 PM 17.1 °F 8.7 °F -7.1 °F 34% 30.80 in 10.0 mi NW 5.8 mph - N/A   Clear
4:54 PM 17.1 °F 6.6 °F -6.0 °F 36% 30.80 in 10.0 mi WNW 8.1 mph - N/A   Clear
5:54 PM 14.0 °F 3.9 °F 1.0 °F 56% 30.80 in 10.0 mi West 6.9 mph - N/A   Clear
6:54 PM 10.0 °F -0.9 °F 1.0 °F 67% 30.80 in 10.0 mi WSW 6.9 mph - N/A   Clear
7:54 PM 9.0 °F -4.2 °F 1.0 °F 70% 30.79 in 10.0 mi WSW 9.2 mph - N/A   Clear
8:54 PM 8.1 °F -5.3 °F 1.0 °F 73% 30.79 in 10.0 mi WSW 9.2 mph - N/A   Clear
9:54 PM 6.1 °F -6.8 °F 1.0 °F 80% 30.76 in 10.0 mi SW 8.1 mph - N/A   Clear
10:54 PM 5.0 °F -6.9 °F -0.0 °F 80% 30.74 in 10.0 mi SW 6.9 mph - N/A   Clear
11:54 PM 5.0 °F -8.1 °F -0.0 °F 80% 30.71 in 10.0 mi WSW 8.1 mph - N/A   Clear